Erie, PA

10:38 PM EDT on August 17, 2017 (GMT -0400)
Erie International

Weather History for KERI - January, 2014

Change the Weather History Date:

Sunday, January 26, 2014

  Actual Average Record
Temperature  
Mean Temperature 17 °F 27 °F  
Max Temperature 31 °F 34 °F 70 °F (1950)
Min Temperature 3 °F 20 °F -3 °F (1897)
Degree Days  
Heating Degree Days 48 38  
Month to date heating degree days 1100 980  
Since 1 July heating degree days 3342 3148  
Cooling Degree Days 0 0  
Month to date cooling degree days 0 0  
Year to date cooling degree days 0 0  
Moisture  
Dew Point 6 °F    
Average Humidity 70    
Maximum Humidity 76    
Minimum Humidity 63    
Precipitation  
Precipitation 0.01 in 0.08 in 0.91 in (1952)
Month to date precipitation 2.45 2.54  
Year to date precipitation 2.45 2.54  
Snow  
Snow 0.30 in 0.80 in - ()
Month to date snowfall 26.0 25.4  
Since 1 July snowfall 89.6 61.6  
Snow Depth 2.00 in    
Sea Level Pressure  
Sea Level Pressure 29.64 in    
Wind  
Wind Speed 15 mph (SSW)    
Max Wind Speed 30 mph    
Max Gust Speed 45 mph    
Visibility 6 miles    
Events Snow    
T = Trace of Precipitation, MM = Missing Value Source: NWS Daily Summary

Daily Weather History Graph

Daily Weather History Graph

Search for Another Location

Airport or City:

Trip Planner

Search our weather history database for the weather conditions in past years. The results will help you decide how hot, cold, wet, or windy it might be!

Date:

Astronomy

Jan. 26, 2014 Rise Set
Actual Time 7:39 AM EST 5:27 PM EST
Civil Twilight 7:09 AM EST 5:57 PM EST
Nautical Twilight 6:35 AM EST 6:31 PM EST
Astronomical Twilight 6:02 AM EST 7:04 PM EST
Moon 3:15 AM EST (1/26) 1:15 PM EST (1/26)
Length of Visible Light 10h 48m
Length of Day
9h 48m
Waning Crescent, 24% of the Moon is Illuminated
Jan 26
Waning Crescent
Jan 30
New
Feb 6
First Quarter
Feb 14
Full
Feb 22
Last Quarter

Hourly Weather History & Observations

Time (EST) Temp. Windchill Dew Point Humidity Pressure Visibility Wind Dir Wind Speed Gust Speed Precip Events Conditions
12:51 AM 10.0 °F -5.9 °F -0.0 °F 64% 29.75 in 10.0 mi West 13.8 mph 20.7 mph N/A   Mostly Cloudy
1:51 AM 9.0 °F -10.5 °F -0.0 °F 67% 29.78 in 8.0 mi West 20.7 mph 28.8 mph N/A   Partly Cloudy
2:51 AM 8.1 °F -7.7 °F -2.0 °F 64% 29.80 in 10.0 mi West 12.7 mph 25.3 mph N/A   Clear
3:51 AM 8.1 °F -4.3 °F -2.9 °F 61% 29.81 in 10.0 mi West 8.1 mph 21.9 mph N/A   Clear
4:51 AM 6.1 °F -4.3 °F -4.0 °F 63% 29.80 in 10.0 mi SSW 5.8 mph - N/A   Clear
5:51 AM 3.9 °F -8.2 °F -5.1 °F 66% 29.80 in 10.0 mi SSW 6.9 mph - N/A   Clear
6:51 AM 5.0 °F -8.1 °F -4.0 °F 66% 29.82 in 10.0 mi South 8.1 mph - N/A   Mostly Cloudy
7:51 AM 6.1 °F -6.8 °F -0.9 °F 73% 29.80 in 10.0 mi South 8.1 mph - N/A   Scattered Clouds
8:51 AM 8.1 °F -7.7 °F 1.0 °F 73% 29.78 in 3.0 mi South 12.7 mph - N/A   Haze
9:00 AM 8.6 °F -6.3 °F -0.4 °F 67% 29.73 in 10.0 mi South 11.5 mph - N/A   Overcast
9:51 AM 9.0 °F -7.3 °F -0.0 °F 67% 29.76 in 10.0 mi South 13.8 mph - N/A   Overcast
10:16 AM 8.6 °F -7.7 °F 1.4 °F 73% 29.71 in 2.5 mi South 13.8 mph - 0.00 in Snow Light Snow
10:28 AM 8.6 °F -7.7 °F 1.4 °F 73% 29.70 in 1.8 mi South 13.8 mph - 0.00 in Snow Light Snow
10:46 AM 8.6 °F -8.3 °F 1.4 °F 73% 29.69 in 2.0 mi South 15.0 mph - 0.00 in Snow Light Snow
10:51 AM 10.0 °F -4.5 °F 1.9 °F 70% 29.73 in 2.0 mi South 11.5 mph 20.7 mph 0.00 in Snow Light Snow
11:03 AM 10.4 °F -5.4 °F 1.4 °F 67% 29.69 in 1.5 mi South 13.8 mph - 0.00 in Snow Light Snow
11:33 AM 10.4 °F -6.0 °F 3.2 °F 73% 29.67 in 1.8 mi South 15.0 mph 23.0 mph 0.00 in Snow Light Snow
11:51 AM 10.9 °F -7.0 °F 3.9 °F 73% 29.70 in 1.8 mi South 18.4 mph 24.2 mph 0.00 in Snow Light Snow
12:30 PM 12.2 °F -3.7 °F 5.0 °F 73% 29.63 in 0.8 mi South 15.0 mph - 0.01 in Snow Light Snow
12:51 PM 12.0 °F -5.1 °F 6.1 °F 77% 29.64 in 0.8 mi South 17.3 mph 26.5 mph 0.01 in Snow Light Snow
1:03 PM 12.2 °F -3.7 °F 6.8 °F 79% 29.59 in 1.0 mi South 15.0 mph 26.5 mph 0.00 in Snow Light Snow
1:21 PM 14.0 °F -2.5 °F 6.8 °F 73% 29.57 in 2.5 mi South 17.3 mph 26.5 mph 0.00 in Snow Light Snow
1:28 PM 14.0 °F -4.3 °F 5.0 °F 67% 29.55 in 3.0 mi South 21.9 mph 27.6 mph 0.00 in   Haze
1:51 PM 15.1 °F -2.5 °F 6.1 °F 68% 29.59 in 2.5 mi South 20.7 mph 32.2 mph 0.00 in   Haze
1:59 PM 15.8 °F -1.1 °F 6.8 °F 68% 29.55 in 4.0 mi South 19.6 mph 29.9 mph N/A   Haze
2:51 PM 16.0 °F -1.3 °F 7.0 °F 68% 29.56 in 4.0 mi South 20.7 mph 26.5 mph 0.00 in   Haze
3:51 PM 18.0 °F 0.6 °F 9.0 °F 68% 29.56 in 3.0 mi South 23.0 mph 35.7 mph 0.00 in Snow Light Snow
3:58 PM 17.6 °F 1.7 °F 10.4 °F 73% 29.52 in 2.0 mi South 18.4 mph 35.7 mph 0.00 in Snow Light Snow
4:16 PM 17.6 °F 1.3 °F 10.4 °F 73% 29.50 in 3.0 mi South 19.6 mph 29.9 mph 0.00 in Snow Light Snow
4:51 PM 19.0 °F 3.6 °F 10.0 °F 68% 29.53 in 8.0 mi South 18.4 mph 27.6 mph 0.00 in   Overcast
5:51 PM 19.9 °F 3.5 °F 10.9 °F 68% 29.51 in 9.0 mi South 21.9 mph 35.7 mph N/A   Overcast
6:17 PM 21.2 °F 6.4 °F 12.2 °F 68% 29.49 in 7.0 mi South 18.4 mph 29.9 mph N/A   Overcast
6:51 PM 23.0 °F 10.1 °F 12.0 °F 63% 29.54 in 10.0 mi South 15.0 mph 20.7 mph N/A   Overcast
7:51 PM 25.0 °F 10.9 °F 17.1 °F 72% 29.53 in 8.0 mi South 19.6 mph 29.9 mph 0.00 in   Overcast
8:32 PM 26.6 °F 13.4 °F 15.8 °F 64% 29.50 in 10.0 mi South 18.4 mph 29.9 mph N/A   Overcast
8:51 PM 27.0 °F 13.9 °F 16.0 °F 63% 29.54 in 10.0 mi SSW 18.4 mph 28.8 mph N/A   Overcast
9:01 PM 26.6 °F 14.3 °F 15.8 °F 64% 29.50 in 10.0 mi South 16.1 mph 26.5 mph N/A   Overcast
9:44 PM 28.4 °F 15.4 °F 17.6 °F 64% 29.49 in 10.0 mi SSW 19.6 mph - N/A   Overcast
9:51 PM 28.9 °F 16.9 °F 17.1 °F 61% 29.52 in 10.0 mi South 17.3 mph - N/A   Overcast
10:51 PM 30.0 °F 19.5 °F 19.0 °F 64% 29.49 in 10.0 mi SSW 13.8 mph - N/A   Scattered Clouds
11:51 PM 30.9 °F 20.2 °F 21.0 °F 67% 29.46 in 10.0 mi SSW 15.0 mph - N/A   Partly Cloudy